| time (UTC) | temp C | wind direction | speed KPH | gust KPH | rain 1hr cm | rain 24hr cm | rain mn cm | humidity % | barometer mb |
| 20260507113052 | 7 | 50 | 3.2 | 9.7 | 0.13 | 2.21 | 2.11 | 93 | 1012.6 |
| 20260507111550 | 7 | 38 | 1.6 | 8.0 | 0.13 | 2.16 | 2.08 | 93 | 1012.6 |
| 20260507110057 | 7 | 45 | 1.6 | 9.7 | 0.13 | 2.13 | 2.06 | 93 | 1012.4 |
| 20260507104551 | 7 | 45 | 4.8 | 14.5 | 0.15 | 2.11 | 2.03 | 93 | 1012.3 |
| 20260507103111 | 7 | 45 | 1.6 | 8.0 | 0.15 | 2.08 | 2.01 | 93 | 1012.2 |
| 20260507101542 | 7 | 38 | 1.6 | 9.7 | 0.18 | 2.03 | 1.96 | 93 | 1011.9 |
| 20260507100050 | 7 | 35 | 3.2 | 12.9 | 0.23 | 2.03 | 1.93 | 93 | 1011.8 |
| 20260507094538 | 7 | 36 | 0.0 | 6.4 | 0.20 | 1.96 | 1.88 | 93 | 1011.6 |
| 20260507093037 | 7 | 22 | 3.2 | 14.5 | 0.23 | 1.93 | 1.83 | 93 | 1011.4 |
| 20260507091538 | 7 | 17 | 1.6 | 8.0 | 0.23 | 1.85 | 1.78 | 93 | 1011.1 |
| 20260507090034 | 8 | 341 | 0.0 | 4.8 | 0.23 | 1.80 | 1.73 | 93 | 1010.9 |
| 20260507084540 | 8 | 320 | 0.0 | 4.8 | 0.23 | 1.75 | 1.68 | 93 | 1010.7 |
| 20260507083026 | 8 | 320 | 0.0 | 3.2 | 0.23 | 1.70 | 1.63 | 93 | 1010.6 |
| 20260507081525 | 8 | 320 | 0.0 | 4.8 | 0.25 | 1.65 | 1.55 | 93 | 1010.4 |
| 20260507080023 | 8 | 319 | 0.0 | 4.8 | 0.23 | 1.57 | 1.50 | 93 | 1010.1 |
| 20260507074521 | 8 | 319 | 0.0 | 3.2 | 0.23 | 1.52 | 1.42 | 93 | 1010.0 |
| 20260507073019 | 8 | 320 | 1.6 | 9.7 | 0.18 | 1.42 | 1.37 | 93 | 1009.8 |
| 20260507071521 | 8 | 317 | 0.0 | 9.7 | 0.15 | 1.37 | 1.30 | 93 | 1009.6 |
| 20260507070016 | 8 | 316 | 1.6 | 6.4 | 0.15 | 1.35 | 1.27 | 93 | 1009.5 |
| 20260507064514 | 8 | 323 | 1.6 | 6.4 | 0.20 | 1.30 | 1.22 | 93 | 1009.4 |
| 20260507063012 | 8 | 319 | 1.6 | 6.4 | 0.28 | 1.27 | 1.19 | 93 | 1009.2 |
| 20260507061512 | 8 | 319 | 0.0 | 9.7 | 0.33 | 1.24 | 1.17 | 93 | 1009.1 |
| 20260507060017 | 8 | 320 | 1.6 | 9.7 | 0.36 | 1.17 | 1.09 | 93 | 1008.9 |
| 20260507054506 | 8 | 311 | 1.6 | 11.3 | 0.38 | 1.09 | 0.99 | 93 | 1008.7 |
| 20260507053005 | 8 | 329 | 1.6 | 11.3 | 0.38 | 1.02 | 0.91 | 92 | 1008.5 |
| 20260507051502 | 8 | 333 | 1.6 | 12.9 | 0.33 | 0.91 | 0.81 | 92 | 1008.4 |
| 20260507050100 | 8 | 325 | 1.6 | 11.3 | 0.30 | 0.81 | 0.71 | 92 | 1008.2 |
| 20260507044559 | 8 | 313 | 1.6 | 14.5 | 0.28 | 0.71 | 0.61 | 92 | 1008.1 |
| 20260507043046 | 8 | 310 | 0.0 | 6.4 | 0.23 | 0.64 | 0.53 | 92 | 1008.0 |
| 20260507041557 | 8 | 326 | 0.0 | 12.9 | 0.23 | 0.58 | 0.48 | 92 | 1007.8 |
| 20260507040044 | 8 | 326 | 1.6 | 9.7 | 0.28 | 0.51 | 0.41 | 92 | 1007.6 |
| 20260507034539 | 8 | 325 | 1.6 | 19.3 | 0.25 | 0.43 | 0.33 | 92 | 1007.5 |
| 20260507033038 | 8 | 323 | 1.6 | 8.0 | 0.23 | 0.41 | 0.30 | 92 | 1007.4 |
| 20260507031539 | 9 | 327 | 0.0 | 8.0 | 0.23 | 0.33 | 0.23 | 92 | 1007.2 |
| 20260507030032 | 9 | 344 | 0.0 | 6.4 | 0.08 | 0.20 | 0.10 | 92 | 1007.2 |
| 20260507024535 | 9 | 334 | 0.0 | 11.3 | 0.05 | 0.18 | 0.08 | 92 | 1007.1 |
| 20260507023028 | 9 | 315 | 1.6 | 12.9 | 0.05 | 0.15 | 0.05 | 92 | 1007.1 |
| 20260507021533 | 10 | 317 | 1.6 | 9.7 | 0.00 | 0.13 | 0.03 | 92 | 1006.9 |
| 20260507020024 | 10 | 318 | 0.0 | 11.3 | 0.00 | 0.13 | 0.03 | 91 | 1006.8 |
| 20260507014521 | 10 | 321 | 1.6 | 9.7 | 0.00 | 0.13 | 0.03 | 91 | 1006.7 |
| 20260507013021 | 10 | 325 | 1.6 | 6.4 | 0.00 | 0.13 | 0.03 | 91 | 1006.6 |
| 20260507011521 | 11 | 327 | 0.0 | 1.6 | 0.00 | 0.13 | 0.03 | 91 | 1006.6 |
| 20260507010023 | 11 | 327 | 0.0 | 0.0 | 0.00 | 0.13 | 0.03 | 91 | 1006.6 |
| 20260507004516 | 11 | 327 | 0.0 | 0.0 | 0.00 | 0.15 | 0.03 | 91 | 1006.6 |
| 20260507003014 | 11 | 327 | 0.0 | 0.0 | 0.00 | 0.15 | 0.03 | 91 | 1006.6 |
| 20260507001515 | 11 | 327 | 0.0 | 0.0 | 0.00 | 0.15 | 0.03 | 91 | 1006.6 |
| 20260507000012 | 11 | 327 | 0.0 | 0.0 | 0.00 | 0.15 | 0.03 | 91 | 1006.5 |
| 20260506234511 | 11 | 327 | 0.0 | 0.0 | 0.00 | 0.18 | 0.03 | 91 | 1006.6 |
| 20260506233010 | 11 | 327 | 0.0 | 0.0 | 0.03 | 0.18 | 0.03 | 91 | 1006.5 |
| 20260506231510 | 11 | 327 | 0.0 | 0.0 | 0.03 | 0.18 | 0.03 | 90 | 1006.5 |
| 20260506230007 | 11 | 327 | 0.0 | 0.0 | 0.03 | 0.18 | 0.03 | 90 | 1006.1 |
| 20260506224506 | 11 | 327 | 0.0 | 0.0 | 0.00 | 0.28 | 0.00 | 90 | 1006.2 |
| 20260506223005 | 11 | 327 | 0.0 | 0.0 | 0.00 | 0.28 | 0.00 | 90 | 1006.3 |
| 20260506221505 | 11 | 327 | 0.0 | 0.0 | 0.03 | 0.28 | 0.00 | 90 | 1006.2 |
| 20260506220002 | 11 | 327 | 0.0 | 0.0 | 0.03 | 0.28 | 0.00 | 89 | 1006.0 |
| 20260506214602 | 11 | 327 | 0.0 | 0.0 | 0.03 | 0.51 | 0.28 | 89 | 1006.2 |
| 20260506213101 | 11 | 327 | 0.0 | 0.0 | 0.05 | 0.51 | 0.28 | 88 | 1006.1 |
| 20260506211559 | 11 | 327 | 0.0 | 0.0 | 0.05 | 0.51 | 0.28 | 87 | 1006.1 |
| 20260506210058 | 12 | 327 | 0.0 | 0.0 | 0.03 | 0.51 | 0.25 | 86 | 1006.0 |
| 20260506204558 | 12 | 327 | 0.0 | 0.0 | 0.03 | 1.19 | 0.25 | 85 | 1006.0 |
| 20260506203055 | 12 | 327 | 0.0 | 0.0 | 0.00 | 1.17 | 0.23 | 84 | 1005.9 |
| 20260506201555 | 12 | 327 | 0.0 | 0.0 | 0.00 | 1.17 | 0.23 | 84 | 1005.8 |
| 20260506200054 | 12 | 327 | 0.0 | 0.0 | 0.00 | 1.17 | 0.23 | 83 | 1005.7 |
| 20260506194552 | 12 | 327 | 1.6 | 6.4 | 0.00 | 1.93 | 0.23 | 82 | 1005.6 |
| 20260506193054 | 12 | 349 | 0.0 | 6.4 | 0.00 | 1.93 | 0.23 | 82 | 1005.3 |
| 20260506191550 | 12 | 313 | 0.0 | 3.2 | 0.00 | 1.93 | 0.23 | 82 | 1005.1 |
| 20260506190047 | 12 | 311 | 0.0 | 0.0 | 0.00 | 1.93 | 0.23 | 81 | 1004.8 |
| 20260506184546 | 12 | 311 | 0.0 | 0.0 | 0.00 | 1.96 | 0.23 | 80 | 1004.6 |
| 20260506183044 | 12 | 311 | 0.0 | 0.0 | 0.00 | 1.96 | 0.23 | 79 | 1004.3 |
| 20260506181557 | 12 | 311 | 0.0 | 0.0 | 0.00 | 1.96 | 0.23 | 79 | 1004.2 |
| 20260506180044 | 13 | 311 | 0.0 | 1.6 | 0.00 | 1.96 | 0.23 | 79 | 1004.3 |
| 20260506174542 | 13 | 311 | 0.0 | 3.2 | 0.00 | 1.96 | 0.23 | 78 | 1004.4 |
| 20260506173105 | 13 | 311 | 0.0 | 9.7 | 0.00 | 1.96 | 0.23 | 77 | 1004.3 |
| 20260506171543 | 14 | 348 | 0.0 | 0.0 | 0.00 | 1.96 | 0.23 | 77 | 1003.9 |
| 20260506170100 | 14 | 348 | 0.0 | 0.0 | 0.00 | 1.96 | 0.23 | 75 | 1003.9 |
| 20260506164541 | 14 | 348 | 0.0 | 6.4 | 0.00 | 1.96 | 0.23 | 74 | 1003.7 |
| 20260506163051 | 13 | 348 | 4.8 | 11.3 | 0.00 | 1.96 | 0.23 | 75 | 1003.8 |
| 20260506161541 | 13 | 352 | 3.2 | 14.5 | 0.00 | 1.96 | 0.23 | 78 | 1004.1 |
| 20260506160042 | 13 | 334 | 3.2 | 16.1 | 0.05 | 1.96 | 0.23 | 79 | 1003.9 |
| 20260506154547 | 14 | 359 | 0.0 | 6.4 | 0.05 | 1.96 | 0.23 | 79 | 1003.8 |
| 20260506153037 | 14 | 359 | 0.0 | 0.0 | 0.05 | 1.96 | 0.23 | 80 | 1003.7 |
| 20260506151537 | 15 | 359 | 3.2 | 12.9 | 0.05 | 1.96 | 0.23 | 78 | 1003.7 |
| 20260506150037 | 16 | 333 | 9.7 | 19.3 | 0.00 | 1.93 | 0.20 | 71 | 1003.7 |
| 20260506144542 | 17 | 193 | 3.2 | 12.9 | 0.00 | 1.93 | 0.20 | 64 | 1003.6 |
| 20260506143035 | 17 | 175 | 0.0 | 3.2 | 0.00 | 1.93 | 0.20 | 65 | 1003.7 |
| 20260506141534 | 17 | 175 | 0.0 | 9.7 | 0.00 | 1.93 | 0.20 | 64 | 1003.7 |
| 20260506140036 | 16 | 173 | 6.4 | 12.9 | 0.00 | 1.93 | 0.20 | 66 | 1003.8 |
| 20260506134532 | 16 | 186 | 4.8 | 12.9 | 0.00 | 1.93 | 0.20 | 69 | 1003.9 |
| 20260506133039 | 16 | 195 | 1.6 | 14.5 | 0.00 | 1.93 | 0.20 | 66 | 1003.9 |
| 20260506131533 | 16 | 188 | 3.2 | 12.9 | 0.00 | 1.93 | 0.20 | 65 | 1004.0 |
| 20260506130035 | 17 | 201 | 6.4 | 14.5 | 0.00 | 1.93 | 0.20 | 65 | 1003.9 |
| 20260506124530 | 17 | 206 | 4.8 | 16.1 | 0.00 | 1.93 | 0.20 | 65 | 1004.0 |
| 20260506123029 | 17 | 189 | 1.6 | 11.3 | 0.00 | 1.93 | 0.20 | 63 | 1004.0 |
| 20260506121529 | 17 | 192 | 4.8 | 12.9 | 0.00 | 1.93 | 0.20 | 66 | 1004.0 |
| 20260506120028 | 17 | 217 | 4.8 | 11.3 | 0.00 | 1.93 | 0.20 | 66 | 1004.2 |
| 20260506114529 | 17 | 230 | 11.3 | 19.3 | 0.00 | 1.93 | 0.20 | 62 | 1004.0 |